,

(GMT )
Prerov

Weather History for LKPO - October, 2012

Change the Weather History Date:

Tuesday, October 9, 2012

  Actual Average Record
Temperature  
Mean Temperature 42 °F -  
Max Temperature 55 °F - - ()
Min Temperature 30 °F - - ()
Degree Days  
Heating Degree Days 22    
Moisture  
Dew Point 39 °F    
Average Humidity 86    
Maximum Humidity 100    
Minimum Humidity 63    
Precipitation  
Precipitation 0.00 in - - ()
Sea Level Pressure  
Sea Level Pressure 29.87 in    
Wind  
Wind Speed 3 mph ()    
Max Wind Speed 10 mph    
Max Gust Speed -    
Visibility 3.6 miles    
Events Fog    
T = Trace of Precipitation, MM = Missing Value Source: Averaged Metar Reports

Daily Weather History Graph

Daily Weather History Graph

Search for Another Location

Airport or City:

Trip Planner

Search our weather history database for the weather conditions in past years. The results will help you decide how hot, cold, wet, or windy it might be!

Date:

Astronomy

Oct. 09, 2012 Rise Set
Actual Time 7:02 AM CEST 6:11 PM CEST
Civil Twilight 6:30 AM CEST 6:43 PM CEST
Nautical Twilight 5:53 AM CEST 7:20 PM CEST
Astronomical Twilight 5:16 AM CEST 7:57 PM CEST
Moon No Moon Rise 2:58 PM CEST (10/9)
Length of Visible Light 12h 12m
Length of Day
11h 09m
Last Quarter, 39% of the Moon is Illuminated
Oct 9
Last Quarter
Oct 15
New
Oct 22
First Quarter
Oct 29
Full
Nov 7
Last Quarter

Hourly Weather History & Observations

Time (CEST) Temp. Windchill Dew Point Humidity Pressure Visibility Wind Dir Wind Speed Gust Speed Precip Events Conditions
1:00 AM 35.6 °F - 35.6 °F 100% 30.01 in - Variable 1.2 mph - N/A   Clear
3:00 AM 35.6 °F - 33.8 °F 93% 29.95 in 2.5 mi East 1.2 mph - N/A   Mist
4:00 AM 33.8 °F - 33.8 °F 100% 29.92 in 2.8 mi Variable 2.3 mph - N/A   Mist
5:00 AM 33.8 °F - 33.8 °F 100% 29.92 in 2.8 mi NE 1.2 mph - N/A   Mist
6:00 AM 32.0 °F - 32.0 °F 100% 29.89 in 0.4 mi Calm Calm - N/A Fog Fog
7:00 AM 30.2 °F - 30.2 °F 100% 29.86 in 0.3 mi West 2.3 mph - N/A Fog Light Freezing Fog
9:00 AM 35.6 °F 32.8 °F 35.6 °F 100% 29.86 in 0.0 mi WNW 3.5 mph - N/A Fog Fog
10:00 AM 37.4 °F - 37.4 °F 100% 29.86 in 0.1 mi Variable 2.3 mph - N/A Fog Fog
11:00 AM 41.0 °F - 39.2 °F 93% 29.86 in 3.7 mi Variable 1.2 mph - N/A   Mostly Cloudy
12:00 PM 46.4 °F - 46.4 °F 100% 29.83 in - Variable 2.3 mph - N/A   Clear
1:00 PM 51.8 °F - 42.8 °F 71% 29.83 in 6.2 mi SSW 8.1 mph - N/A   Scattered Clouds
2:00 PM 53.6 °F - 42.8 °F 67% 29.80 in 6.2 mi SSW 9.2 mph - N/A   Scattered Clouds
3:00 PM 55.4 °F - 42.8 °F 63% 29.80 in 6.2 mi SSW 9.2 mph - N/A   Mostly Cloudy
4:00 PM 55.4 °F - 44.6 °F 67% 29.80 in 6.2 mi WSW 9.2 mph - N/A   Mostly Cloudy
5:00 PM 55.4 °F - 44.6 °F 67% 29.80 in - WSW 8.1 mph - N/A   Clear
6:00 PM 51.8 °F - 46.4 °F 82% 29.83 in 6.2 mi West 5.8 mph - N/A   Mostly Cloudy
7:00 PM 50.0 °F - 44.6 °F 82% 29.86 in 6.2 mi NW 10.4 mph - N/A   Partly Cloudy
8:00 PM 46.4 °F 42.9 °F 39.2 °F 76% 29.86 in - NNW 6.9 mph - N/A   Clear
9:00 PM 42.8 °F 39.3 °F 37.4 °F 81% 29.89 in - NW 5.8 mph - N/A   Clear
10:00 PM 42.8 °F 40.1 °F 37.4 °F 81% 29.89 in - NW 4.6 mph - N/A   Clear
11:00 PM 41.0 °F 38.0 °F 37.4 °F 87% 29.92 in - NW 4.6 mph - N/A   Clear